Volver al catálogo

FENGYUN 1C DEB

LostPO
NORAD 35170·DEBRIS·🇨🇳 China

Lanzado May 10, 1999 desde Taiyuan Satellite Launch Center

Loading…

Próximos Pases (próximas 24 horas)

TLE

ObsoletoSource: Space-Track

Época: Sep 22, 2022, 04:06 UTC

1 35170U 99025DNA 22265.17107112  .00002140  00000-0  12776-2 0  9990
2 35170  99.8551  45.1504 0104602 291.9255  67.0817 14.05803684739928

Sigue FENGYUN 1C DEB en tiempo real con AllMySat

Download on the App Store